Terminal Aerodrome Forecast
Issued by NWS Hastings, NE

Home | Current Version | Previous Version | Text Only | Print | Product List | Glossary On
Versions: 1 2 3 4 5 6 7 8 9 10 11 12 13 14 15 16 17 18 19 20 21 22 23 24 25 26 27 28 29 30
000
FTUS45 KGID 221238 AAA
TAFEAR
TAF AMD
KEAR 221238Z 2213/2312 29010KT P6SM SCT025 BKN060
     FM221600 32017G24KT P6SM SCT025 BKN060
     FM230100 31015KT P6SM SCT010 BKN025
     FM230600 31017G24KT 5SM -SN OVC010
      AMD LTD TO CLD VIS AND WIND=

USA.gov is the U.S. government's official web portal to all federal, state and local government web resources and services.